Regional Weather Roundup
Issued by NWS Memphis, TN

Home | Current Version | Previous Version | Text Only | Print | Product List | Glossary On
Versions: 1 2 3 4 5 6 7 8 9 10 11 12 13 14 15 16 17 18 19 20 21 22 23 24 25 26 27 28 29 30 31 32 33 34 35 36 37 38 39 40 41 42 43 44 45 46 47 48 49 50
000
ASUS44 KMEG 232110
RWRMEG
MEMPHIS CWA HOURLY WEATHER ROUNDUP
NATIONAL WEATHER SERVICE MEMPHIS TN
300 PM CST MON JAN 23 2017

...WEST TENNESSEE...

CITY           SKY/WX    TMP DP  RH WIND       PRES   REMARKS
MEMPHIS INTL   PTSUNNY   49  38  65 NW12      29.81R
NWS MEMPHIS      N/A     50 N/A N/A MISG        N/A
JACKSON        CLOUDY    48  39  71 NW14      29.80R
BOLIVAR        CLOUDY    48  37  66 NW12G18   29.79R
DYERSBURG      CLOUDY    48  37  66 N9        29.80R
UNION CITY     CLOUDY    45  37  76 NW15      29.78R
PARIS          CLOUDY    45  36  70 CALM      29.76R
HUNTINGDON     CLOUDY    48  39  71 NW9G16    29.76R


...EASTERN ARKANSAS...

CITY           SKY/WX    TMP DP  RH WIND       PRES   REMARKS
JONESBORO      PTSUNNY   53  39  59 NW9       29.80S
WEST MEMPHIS   CLOUDY    48  40  73 N6        29.81S
BATESVILLE     SUNNY     54  36  50 NW8       29.83S
NEWPORT        SUNNY     55  38  52 NW10      29.82S
WALNUT RIDGE   MOSUNNY   54  36  50 NW15      29.82R
BLYTHEVILLE    CLOUDY    51  40  65 N8        29.80S
SEARCY         SUNNY     56  39  53 NW10      29.85S
STUTTGART      PTSUNNY   55  37  50 W10       29.85S
PINE BLUFF     SUNNY     55  39  54 NW5       29.84F
MONTICELLO     SUNNY     57  40  52 NW9       29.84S


...NORTH MISSISSIPPI...

CITY           SKY/WX    TMP DP  RH WIND       PRES   REMARKS
TUPELO         SUNNY     56  37  49 NW12      29.75R
OXFORD         SUNNY     50  37  62 NW15      29.81S
BATESVILLE     PTSUNNY   49  39  69 CALM      29.82S
OLIVE BRANCH   PTSUNNY  N/A N/A N/A NW7       29.79S
TUNICA         PTSUNNY   46  37  71 NW9       29.84S
CLARKSDALE     CLOUDY    48  41  76 W13       29.84S
CORINTH        SUNNY     54  39  58 NW15G22   29.76R
GREENWOOD      CLOUDY    49  38  65 W7        29.84R
COLUMBUS       SUNNY     59  43  55 W20       29.75R
STARKVILLE     SUNNY     59  43  55 NW9       29.76F
GOLDEN TRIANGL SUNNY     59  41  51 W7        29.71R


...SOUTHEAST MISSOURI...

CITY           SKY/WX    TMP DP  RH WIND       PRES   REMARKS
KENNETT        PTSUNNY   52  39  62 N10       29.78F
WEST PLAINS    MOSUNNY   52  34  50 NW10      29.83S
POPLAR BLUFF   SUNNY     53  38  56 N12       29.78S
CAPE GIRARDEAU CLOUDY    45  35  68 N13G22    29.80S


...NORTHWEST ALABAMA...

CITY           SKY/WX    TMP DP  RH WIND       PRES   REMARKS
MUSCLE SHOALS  SUNNY     58  43  57 NW14      29.70R


...MIDDLE TENNESSEE...

CITY           SKY/WX    TMP DP  RH WIND       PRES   REMARKS
NASHVILLE      CLOUDY    48  39  71 NW15G22   29.69R
CLARKSVILLE    CLOUDY    45  36  70 NW14G23   29.72R
COLUMBIA       MOSUNNY   52  43  71 NW8       29.67R


...WESTERN KENTUCKY...

CITY           SKY/WX    TMP DP  RH WIND       PRES   REMARKS
PADUCAH        CLOUDY    45  35  68 NW12G18   29.78R
FORT CAMPBELL  CLOUDY    45  37  75 NW15G21   29.72R


...CENTRAL ARKANSAS...

CITY           SKY/WX    TMP DP  RH WIND       PRES   REMARKS
LITTLE ROCK    SUNNY     56  38  50 CALM      29.85S


SKY/WX REPORTED AS FAIR MEANS FEW OR NO CLOUDS BELOW
12 THOUSAND FEET.




USA.gov is the U.S. government's official web portal to all federal, state and local government web resources and services.